Wind_Speed
18 17 17 20 19 20 19 18 17 13 12 14 16 16 13 9 7 4 4 10 10 7 7 7 8 9 10 12 12 12 18 21 21 22 21 19 19 21 21 21 22 22 21 21 21 20 19 19 19 20 21 21 20 19 18 18 17 15 14 14 14 14 13 13 13 13 12 11 11 10 8 7 5 4 4 4 5 8 8 7 7 7 7 7 6 6
17 18 18 20 18 18 18 16 15 13 13 14 15 18 15 10 9 5 5 8 9 5 6 8 7 6 7 9 10 11 15 16 15 19 21 20 19 19 21 22 22 22 21 20 21 21 19 19 18 19 20 21 20 19 18 18 18 16 15 15 14 14 13 13 13 13 13 12 11 11 9 7 6 5 4 3 3 6 8 7 7 7 7 7 6 7
18 20 17 17 16 15 16 16 15 12 14 14 13 16 14 9 10 8 8 10 9 5 7 10 7 5 4 5 8 11 14 13 12 15 19 21 21 20 21 22 23 23 22 22 22 21 21 19 19 18 18 19 19 19 18 19 19 17 16 16 15 14 14 14 14 14 14 13 12 12 11 9 7 7 5 4 3 5 7 7 6 7 8 7 7 7
18 19 16 16 15 15 15 15 15 13 15 15 13 14 13 11 10 9 10 11 9 6 8 11 9 6 2 4 9 12 15 17 15 15 17 19 21 22 22 21 22 23 24 24 22 22 21 20 19 18 17 18 18 19 19 19 20 18 16 16 16 15 15 15 15 15 15 14 14 12 11 10 9 8 6 5 5 5 6 7 6 6 7 6 6 6
16 15 15 16 15 14 15 15 15 15 15 15 15 14 13 13 11 7 8 10 10 8 7 10 11 7 2 4 10 11 13 17 18 15 14 15 17 19 22 22 21 23 23 22 22 23 22 20 19 18 17 17 18 19 20 19 20 19 17 16 16 16 15 15 16 16 15 14 14 13 12 10 9 8 7 7 7 6 6 7 6 5 6 5 5 6
15 14 15 17 16 15 15 15 17 17 15 15 15 15 15 15 11 7 7 8 11 11 12 11 7 3 4 6 8 7 8 13 15 14 15 15 15 15 19 22 23 23 23 21 20 22 22 21 19 18 17 16 17 18 19 19 19 19 18 17 17 17 16 16 16 16 15 14 14 13 12 10 9 8 8 8 8 7 7 7 7 6 5 5 5 6
15 13 15 18 16 15 16 15 16 18 18 16 16 16 15 13 11 10 8 8 10 10 11 12 6 5 5 6 9 8 6 9 12 13 15 18 17 16 18 21 22 23 23 22 21 22 22 21 19 18 18 16 16 17 17 18 19 20 20 18 17 17 17 17 17 16 15 14 13 13 12 11 10 9 9 9 9 8 7 8 7 6 5 4 5 6
16 14 16 17 15 15 17 16 14 16 18 16 15 18 17 13 11 12 10 10 10 9 9 10 10 10 8 5 7 9 7 7 11 13 14 17 18 18 21 21 20 21 22 23 23 23 22 21 19 18 18 16 17 17 17 18 19 20 20 19 19 18 18 17 17 16 16 14 14 14 14 13 12 10 10 10 9 8 8 8 8 7 5 5 5 5
17 16 16 18 16 16 16 14 12 14 17 13 10 13 16 17 15 13 13 12 11 10 10 12 14 10 6 5 5 7 6 4 7 10 11 16 18 19 22 21 20 21 22 22 23 23 22 21 19 18 18 17 16 16 16 17 18 20 20 20 20 19 18 18 17 17 16 15 15 14 14 14 13 12 10 10 10 9 9 8 8 8 7 5 5 6
16 15 15 18 17 15 15 14 11 13 17 12 5 7 12 16 18 16 14 14 13 12 11 13 17 10 6 8 9 10 8 3 3 5 7 13 17 19 22 23 21 20 21 22 22 22 22 21 19 18 18 17 17 16 16 17 17 18 20 20 21 20 19 18 17 17 17 16 16 15 15 14 14 13 11 11 11 10 9 9 8 8 8 7 5 6
14 14 14 17 15 13 14 13 11 12 16 14 7 8 12 13 15 15 14 15 14 12 13 14 17 12 6 7 8 9 7 4 3 3 4 7 13 18 20 21 19 17 18 21 23 22 22 21 19 19 19 18 18 17 17 17 17 17 18 19 20 20 20 19 18 18 17 17 16 16 16 15 15 14 13 12 11 10 10 9 9 8 8 8 7 6
11 13 15 17 15 12 10 9 9 10 13 13 11 11 13 14 15 14 14 15 12 10 13 16 17 11 7 9 9 8 7 5 4 3 4 3 8 15 17 18 19 19 18 18 20 22 22 22 20 19 20 19 18 18 17 17 17 17 17 18 19 20 20 20 20 19 18 17 17 17 17 17 16 15 14 13 12 11 10 10 10 9 8 8 8 7
11 11 13 16 17 15 9 8 10 12 13 13 14 15 13 13 13 11 11 13 12 11 12 17 16 8 10 12 11 9 7 5 4 3 5 3 3 10 13 16 20 23 22 20 21 22 23 23 21 20 20 20 20 19 18 18 17 17 17 17 17 18 19 20 21 20 19 18 18 18 18 18 18 16 15 14 13 12 12 11 10 10 9 8 9 9
12 10 10 13 18 18 14 12 12 12 16 18 16 17 14 10 9 8 9 9 12 13 13 16 14 12 14 11 11 11 9 7 5 4 6 5 2 5 10 15 19 20 20 23 23 22 22 22 22 21 20 21 21 20 19 19 18 18 18 17 17 17 18 19 20 21 20 19 19 19 19 19 19 18 17 15 14 13 13 12 11 10 9 9 9 10
12 10 12 13 14 19 19 15 10 8 15 21 18 16 17 13 9 8 8 9 11 12 15 16 11 13 17 12 11 12 10 9 8 6 6 6 5 5 5 10 18 21 18 19 21 22 22 22 23 23 23 22 21 21 20 19 19 19 19 18 17 17 18 18 20 20 20 20 20 20 20 20 20 19 18 17 16 15 14 12 12 11 11 10 10 10
11 7 14 13 9 16 18 15 11 7 11 18 18 17 18 16 13 12 12 14 14 12 14 13 6 11 18 15 12 13 11 10 10 9 8 7 7 7 6 6 12 20 20 18 20 22 23 23 23 24 24 24 22 21 21 20 20 20 19 18 18 17 18 18 19 20 20 20 20 20 20 21 21 20 19 18 16 15 15 14 13 12 12 11 10 10
13 9 13 13 8 12 15 13 13 11 8 13 20 19 15 12 12 14 14 17 16 12 12 15 14 17 19 15 12 12 12 11 10 9 9 8 7 7 8 8 10 14 18 20 21 22 23 24 23 23 24 26 25 22 22 21 21 21 20 19 18 18 18 18 18 19 19 20 20 20 20 21 22 21 20 18 17 16 16 15 14 13 12 12 11 10
11 8 12 12 9 13 16 14 14 13 8 9 16 17 13 9 10 12 11 14 15 10 11 19 20 19 18 14 13 12 10 9 9 9 9 8 6 7 6 8 10 11 15 18 22 24 25 25 25 24 24 25 26 24 24 23 22 21 20 20 20 20 19 19 18 19 19 19 19 19 20 21 22 22 21 20 18 18 17 16 15 14 13 13 13 12
9 7 12 12 8 11 15 14 15 17 13 6 6 10 12 12 11 12 10 8 12 10 9 18 20 16 14 13 14 12 9 7 6 7 7 8 7 7 6 5 8 11 14 16 18 20 22 25 25 25 24 24 25 25 25 24 23 22 21 21 21 20 19 19 18 19 19 18 18 19 19 20 21 22 22 21 20 19 18 17 17 16 15 14 14 13
9 4 10 12 9 11 14 16 15 18 19 11 7 8 13 12 13 17 14 10 11 10 8 13 15 10 10 12 13 12 9 7 4 5 6 6 7 7 6 6 4 7 12 15 17 16 17 21 24 25 24 25 26 27 26 25 24 24 22 22 21 21 20 19 19 19 19 18 18 18 18 19 20 22 23 23 22 20 19 18 18 17 16 16 15 15
9 7 8 12 11 12 13 16 12 8 14 15 13 13 12 12 14 14 16 17 13 11 9 9 10 10 10 8 10 10 8 7 5 5 6 5 5 5 5 5 4 3 6 12 18 19 16 17 21 22 23 24 26 28 29 26 25 24 23 22 22 21 21 21 20 20 19 19 19 18 18 19 19 21 22 23 22 21 21 19 19 19 18 18 18 16
8 8 9 12 13 12 12 17 14 5 6 7 11 15 14 16 16 10 13 19 18 15 8 4 8 11 11 7 7 8 7 6 6 5 5 5 4 4 3 3 3 2 2 6 14 20 18 17 18 21 23 25 26 28 29 28 27 26 25 24 23 23 23 22 21 21 19 19 19 18 18 19 19 20 22 23 23 23 22 21 20 20 20 19 19 18
7 8 8 8 8 7 10 16 18 12 11 5 4 7 8 12 17 15 13 12 16 19 7 10 12 9 8 8 7 7 6 6 7 6 4 5 5 4 3 2 2 1 0 1 7 16 21 20 18 20 24 26 25 27 29 29 28 27 27 25 24 25 24 22 21 21 20 19 19 18 18 19 19 20 21 23 23 23 23 22 22 22 21 20 19 19
8 7 6 3 6 4 4 10 14 13 15 13 9 8 6 8 12 13 9 4 10 19 14 9 10 8 8 8 7 7 6 6 7 7 4 5 6 4 3 2 2 1 0 1 2 11 20 22 18 18 22 26 27 28 29 31 30 29 28 26 27 27 26 24 23 23 22 20 19 18 18 19 19 20 21 22 23 23 23 23 23 22 22 21 21 21
7 6 7 7 7 6 6 8 11 12 14 14 10 8 9 10 11 12 9 7 9 13 11 6 8 14 11 9 10 10 9 8 7 7 6 6 6 5 4 3 2 1 1 2 2 6 15 20 18 17 20 24 26 26 27 29 30 29 28 27 28 27 25 23 22 22 23 22 20 20 19 19 19 19 20 21 21 23 23 24 24 23 22 22 22 22
3 3 5 5 4 5 5 5 7 11 15 14 8 5 7 9 9 11 12 11 11 10 9 3 14 19 13 11 13 11 10 10 8 7 6 7 7 5 3 2 2 2 3 3 2 3 9 17 20 19 20 22 22 22 23 25 25 25 26 27 27 25 24 24 21 21 23 23 22 22 21 20 20 20 20 20 21 21 22 24 25 25 23 23 23 24
0 2 3 3 4 3 4 5 4 6 12 12 9 6 5 5 6 11 14 11 12 11 4 7 19 22 17 14 13 11 11 10 8 7 6 7 8 7 4 2 2 2 4 4 1 2 3 12 19 20 20 20 21 22 22 24 25 24 26 27 26 25 24 24 23 23 23 23 23 23 23 22 21 21 21 21 21 21 22 23 24 25 25 24 24 24
1 5 6 3 2 3 5 4 4 4 6 7 6 5 3 3 4 10 13 8 10 12 7 14 19 22 21 16 13 12 11 9 8 7 7 7 7 7 6 4 3 2 3 3 1 2 2 5 13 18 19 19 20 21 22 24 25 26 27 27 27 27 26 26 27 27 24 24 25 26 24 23 22 22 22 22 22 22 22 22 22 24 25 25 24 24
4 5 5 5 4 1 1 0 2 1 2 3 3 3 3 3 4 7 8 5 6 7 8 16 17 19 19 14 12 13 11 9 9 7 6 7 7 7 7 6 4 2 3 2 1 3 3 2 4 10 16 18 19 20 21 23 24 25 27 27 27 29 28 28 28 28 27 28 28 28 27 25 24 24 23 23 24 23 23 23 22 23 24 24 24 24
6 4 4 5 4 3 3 4 4 3 4 5 5 4 4 4 4 5 4 2 1 3 9 14 16 17 16 12 11 10 9 9 8 7 6 7 7 8 6 6 5 3 2 2 1 1 2 3 3 3 7 13 17 19 20 22 24 25 26 26 27 28 30 31 29 28 28 30 30 30 30 29 28 27 26 25 25 25 24 24 23 23 23 24 24 24
6 5 5 6 6 5 5 6 7 6 6 8 8 6 6 7 6 6 4 3 4 6 9 13 16 16 14 11 9 8 7 7 7 7 5 6 9 8 6 5 7 5 3 3 1 1 2 3 4 4 4 4 9 14 18 20 23 25 27 27 28 27 28 31 31 28 27 28 29 31 32 32 31 30 30 29 28 26 26 26 26 25 25 25 25 25
5 4 4 7 9 8 6 6 7 6 7 10 11 9 9 9 8 8 7 6 6 8 10 13 15 15 13 10 8 7 6 6 6 6 4 3 5 5 5 6 9 8 6 5 4 2 1 2 4 5 5 5 4 6 11 15 19 23 26 28 29 28 27 28 28 27 28 29 29 30 32 33 33 33 32 31 30 30 29 28 29 28 28 27 27 26
5 4 4 8 10 7 8 6 6 6 8 10 12 13 12 10 9 8 7 7 7 9 10 11 12 13 11 9 8 6 4 4 4 5 5 2 2 2 2 5 8 7 7 6 5 4 3 2 2 5 6 8 7 5 5 9 13 18 23 26 28 27 26 26 25 26 28 29 29 30 32 33 34 34 34 33 33 32 31 31 31 31 30 30 28 28
5 5 4 7 9 6 6 6 6 8 7 6 7 10 11 9 9 7 6 7 8 8 10 12 12 12 10 9 10 11 9 7 5 5 7 5 2 1 0 2 4 6 6 5 5 5 4 4 3 3 5 7 8 8 7 7 7 11 16 22 26 27 26 25 24 24 26 28 27 28 30 31 32 33 35 36 35 34 34 34 33 32 32 31 31 32
4 5 4 6 8 5 5 7 8 7 6 7 9 11 11 9 8 7 6 7 8 7 9 11 12 11 10 11 14 15 12 6 4 5 7 8 6 1 1 2 3 5 6 5 5 5 4 4 4 4 5 6 6 8 8 9 8 8 10 14 20 24 26 27 25 24 25 26 26 26 27 29 31 32 34 36 37 37 37 36 35 34 33 32 33 33
4 4 4 6 8 5 5 9 7 3 5 7 6 8 10 9 8 8 8 9 10 8 7 9 10 9 9 8 8 8 6 5 5 7 7 8 8 4 2 5 7 8 7 7 6 6 5 4 4 4 5 6 6 6 7 8 8 8 9 11 13 16 19 23 26 27 27 27 26 27 28 29 31 33 34 36 38 39 39 38 38 36 35 34 34 33
5 4 4 7 9 7 7 9 8 5 6 8 7 6 7 7 8 10 9 10 11 11 9 10 12 10 8 8 7 7 7 6 7 10 9 7 10 10 8 10 11 11 11 10 9 9 8 7 6 6 6 6 7 8 7 8 8 8 9 10 11 12 13 15 20 25 29 30 29 29 31 32 33 34 35 37 39 40 41 41 40 39 38 37 37 36
7 6 5 5 7 8 9 9 8 7 7 8 10 8 7 8 9 10 9 9 11 11 10 11 12 11 11 12 11 10 8 6 7 11 10 9 15 15 12 14 15 15 15 14 13 13 12 10 10 10 9 8 8 8 9 9 10 9 9 9 9 10 11 12 14 18 23 28 30 30 32 33 34 35 36 38 40 42 43 43 42 42 42 41 40 39
6 7 7 6 7 8 9 10 9 7 5 9 11 9 7 7 7 7 9 11 12 11 11 12 11 11 13 14 13 11 7 5 7 14 17 18 20 19 17 17 17 17 18 17 18 18 16 14 14 13 13 12 11 10 10 10 11 11 11 11 10 9 10 11 12 14 16 20 24 27 31 34 35 36 37 38 41 43 42 40 39 39 40 43 44 42
7 8 8 9 9 9 9 10 10 6 5 10 10 8 6 5 4 5 7 11 14 13 11 12 13 13 14 13 12 9 8 8 11 16 20 22 22 23 22 19 18 18 20 20 21 21 19 18 19 17 16 17 15 14 14 12 12 12 13 13 13 12 11 10 11 12 13 15 17 20 25 30 34 37 39 39 41 43 42 40 40 38 37 37 39 40
8 9 10 11 12 11 10 11 11 5 6 10 10 9 10 7 6 7 8 10 15 14 12 14 15 16 15 12 10 9 11 16 20 21 21 21 23 23 22 21 21 21 21 22 23 22 21 21 22 20 20 20 19 19 19 17 15 15 14 15 15 15 15 13 12 12 12 13 15 16 18 23 28 33 37 39 41 43 42 40 40 39 38 37 37 37
9 10 11 11 12 11 10 12 12 6 8 11 9 11 12 8 6 9 10 12 13 11 10 12 12 11 10 10 11 12 14 17 20 21 22 23 23 23 22 23 23 22 21 22 23 23 23 23 22 22 23 23 22 23 23 21 20 19 17 17 17 17 17 17 16 14 13 13 14 15 16 18 21 26 31 35 38 41 42 40 38 38 39 39 39 39
8 9 11 12 12 12 11 11 10 7 9 13 10 10 11 9 10 13 13 11 11 10 10 10 10 11 12 11 13 15 16 16 16 19 21 22 22 22 23 24 24 22 22 22 23 24 25 24 23 23 23 24 25 25 24 24 24 24 22 21 20 19 19 19 19 18 16 14 14 15 17 18 20 22 25 28 32 37 40 39 38 39 40 40 41 41
9 9 11 10 10 12 11 10 9 8 11 12 10 7 9 12 17 19 15 10 10 13 14 12 13 16 17 16 16 17 17 17 18 19 20 21 20 21 22 23 23 23 23 23 23 25 25 25 25 25 24 24 26 26 26 26 26 27 27 26 25 24 22 22 21 20 19 18 16 17 18 19 20 22 23 25 27 31 34 36 37 38 39 41 41 42
11 12 13 11 8 9 8 7 7 8 9 9 9 10 12 15 17 19 16 12 11 12 13 14 16 20 21 18 18 19 18 19 20 20 22 23 22 22 23 23 23 24 24 25 25 25 25 26 26 25 25 25 26 27 27 27 27 28 29 28 28 27 26 26 24 23 22 22 20 19 20 20 21 22 23 24 25 27 30 32 35 36 37 39 41 41
13 16 18 15 11 11 10 11 11 10 10 10 10 12 16 17 16 17 18 17 16 17 17 17 19 22 22 19 18 19 20 21 21 21 22 23 22 22 23 23 23 24 24 26 26 27 27 27 27 27 27 26 26 27 28 28 29 29 29 29 30 30 29 29 28 27 26 25 24 23 23 23 23 23 23 24 24 25 27 29 32 34 35 37 39 41
15 18 18 16 13 12 10 11 12 13 14 14 12 13 18 21 20 19 18 19 22 24 23 21 21 21 21 20 20 20 20 21 21 21 22 23 22 22 22 22 22 23 23 24 26 27 27 27 28 29 29 28 28 28 28 28 29 29 29 30 31 31 32 32 31 30 29 28 27 27 26 26 26 26 26 25 24 23 25 26 28 31 35 37 39 41
13 15 15 14 15 15 13 11 12 14 16 17 16 15 17 20 21 20 19 20 22 22 21 20 20 19 19 20 21 21 20 20 21 22 22 23 23 23 23 23 23 23 23 24 25 26 27 28 27 28 28 29 29 29 29 29 29 29 30 30 31 32 33 34 33 32 31 30 30 30 29 29 28 28 28 28 26 24 23 24 25 28 32 36 39 40
15 14 12 11 13 16 18 17 16 18 20 22 23 19 17 19 20 17 16 19 21 21 20 19 19 19 19 20 21 21 20 20 21 22 22 24 24 24 24 24 24 23 23 23 24 25 27 27 27 27 28 28 29 30 31 31 30 30 30 30 31 33 34 34 34 33 33 32 31 32 32 31 31 31 30 30 29 28 26 24 23 26 29 34 37 40
17 16 15 14 15 15 15 15 16 18 19 18 19 19 19 20 19 15 13 15 17 19 20 20 19 19 19 20 21 21 21 21 22 23 23 23 24 24 24 24 24 23 22 22 22 23 24 26 27 27 28 28 29 30 31 32 32 32 32 31 32 34 35 35 35 34 33 33 33 34 34 33 33 33 33 33 32 31 29 27 25 24 27 31 35 38
17 18 18 19 18 18 16 14 16 20 19 16 15 17 17 17 16 15 14 14 14 15 18 20 20 20 20 21 21 21 22 23 23 23 23 23 23 23 24 24 23 23 23 23 23 23 24 24 26 27 28 28 29 30 32 33 32 32 33 33 33 34 35 36 36 34 34 34 35 35 36 36 36 36 35 35 35 34 32 30 28 26 26 29 32 36
Wind_Direction
189 198 207 211 210 209 209 211 219 227 225 219 211 217 224 199 198 231 177 185 193 161 147 157 149 145 148 166 185 178 170 176 176 171 175 180 177 175 173 175 183 184 185 186 181 183 184 183 187 188 188 191 193 192 188 184 185 185 181 182 184 181 182 181 175 169 161 156 152 149 143 143 148 143 130 121 117 112 108 109 108 109 115 116 115 110
196 210 214 213 210 211 212 213 220 221 219 218 212 215 219 198 181 180 152 167 186 164 147 158 142 138 142 156 180 168 163 176 183 180 179 180 179 178 176 178 184 183 182 190 187 184 187 187 189 190 191 193 195 195 190 187 186 185 184 184 184 182 181 180 173 165 159 155 155 153 150 152 151 146 140 131 112 100 100 100 102 110 115 114 113 109
201 215 217 212 208 212 211 210 216 211 209 214 210 208 211 191 163 166 170 167 181 170 153 168 147 122 132 151 172 165 161 174 193 199 193 185 180 181 182 180 185 180 177 192 194 187 190 192 192 192 192 194 196 196 193 190 188 188 188 184 182 183 181 179 174 167 162 161 162 161 159 159 157 153 150 143 122 100 102 102 104 115 119 117 115 110
203 214 213 209 206 208 204 202 208 206 209 213 208 208 208 193 177 177 175 166 173 159 148 165 147 126 142 163 171 173 168 171 189 207 205 194 184 183 183 181 187 184 181 194 196 190 193 195 197 195 193 195 195 197 197 193 191 190 191 186 182 183 183 179 176 172 168 167 168 166 165 164 160 157 153 147 136 120 115 112 111 118 121 123 122 117
205 210 206 203 201 201 200 202 206 205 210 213 211 216 208 200 202 187 169 169 177 180 165 149 134 138 184 166 171 175 172 176 186 193 195 197 191 186 184 182 188 190 190 196 196 193 196 199 199 196 195 197 195 197 198 196 195 193 191 189 184 184 185 180 179 179 173 172 173 169 168 167 160 157 155 151 146 140 132 126 121 119 118 121 128 127
210 208 200 197 197 200 205 208 209 207 212 215 214 217 214 214 214 180 166 189 192 195 192 172 141 146 194 188 190 185 181 194 195 186 186 193 195 194 190 187 188 191 196 200 199 198 200 203 202 196 196 198 197 198 199 199 199 196 193 191 188 186 186 183 183 184 177 174 175 169 167 164 159 159 158 159 155 151 148 141 134 127 120 119 128 131
208 203 194 194 199 205 211 215 212 210 216 221 214 213 218 224 218 194 190 216 211 196 195 202 191 142 165 204 213 207 204 213 209 200 195 192 193 194 191 191 190 191 196 199 201 202 204 207 205 200 199 199 200 198 198 201 201 200 196 193 192 189 188 187 185 186 183 178 175 171 169 164 162 165 165 167 165 161 159 150 142 134 128 129 133 136
201 190 186 195 205 207 212 216 211 209 217 226 219 212 214 215 212 210 221 239 227 189 181 208 192 149 152 196 213 213 220 222 215 217 212 199 196 193 187 189 191 191 195 197 200 203 206 210 207 202 202 201 202 199 196 201 202 202 201 197 196 192 190 191 188 188 188 184 180 176 174 168 169 173 172 172 172 169 165 156 151 143 135 139 140 146
192 188 189 197 206 209 211 211 207 205 210 222 216 202 208 214 218 225 232 237 234 213 203 207 191 158 131 140 161 179 184 201 210 217 220 206 200 194 188 190 191 193 198 198 200 205 207 209 207 203 204 203 204 201 199 203 202 202 203 201 199 196 194 193 191 192 192 190 187 183 180 175 175 178 177 177 177 175 171 166 162 152 145 146 148 156
189 194 194 196 205 212 211 208 209 204 202 210 210 191 208 219 223 230 233 231 232 233 227 209 194 172 100 108 127 130 131 125 173 187 201 204 202 194 189 191 191 195 200 196 197 205 210 211 209 206 206 206 206 204 203 204 204 203 204 205 202 198 198 196 195 196 195 195 194 189 186 183 181 182 181 181 181 179 177 176 171 160 154 152 154 161
187 190 188 193 201 205 206 206 200 196 201 210 219 210 213 218 221 226 229 231 232 226 226 217 200 187 122 112 132 130 128 93 64 110 132 186 203 196 189 189 190 195 202 201 198 199 207 211 211 210 208 207 207 207 207 206 205 205 206 208 206 201 199 199 200 201 200 200 199 195 191 189 189 186 185 184 182 181 181 181 177 169 164 161 161 162
179 189 190 199 203 195 202 208 193 196 207 210 211 208 208 207 211 218 219 225 233 225 221 215 203 192 140 134 139 128 130 108 74 92 109 136 196 194 191 192 191 193 199 206 200 196 203 208 209 212 210 209 210 209 210 210 207 206 208 210 210 207 202 200 202 204 205 204 203 200 196 194 194 191 189 187 184 182 182 184 183 179 174 168 167 167
186 193 191 201 205 192 195 214 204 207 209 204 205 207 206 199 198 212 214 215 226 227 222 213 200 162 110 126 130 115 114 113 98 101 109 108 195 188 187 192 192 191 193 201 202 198 203 207 207 211 211 211 212 212 211 211 212 210 208 212 215 212 208 203 203 206 207 208 208 206 202 199 198 195 193 191 188 185 184 187 187 185 181 174 172 174
179 182 185 196 205 199 199 210 205 204 207 205 206 208 210 203 192 208 211 209 224 220 211 212 197 144 123 127 123 115 103 95 92 87 107 108 99 161 177 191 194 191 191 195 197 199 204 207 208 211 215 215 215 215 213 211 215 216 212 213 216 215 213 208 206 207 208 208 209 209 208 205 201 198 197 195 192 189 188 190 191 189 187 183 182 181
181 184 186 184 199 199 201 219 223 208 208 208 208 211 215 217 210 212 213 212 220 211 196 204 202 156 147 139 120 117 101 86 85 74 91 98 82 112 157 187 190 190 192 194 194 197 202 206 209 210 214 219 219 218 216 213 214 216 215 216 217 216 215 213 211 209 208 209 210 210 210 209 205 202 200 199 196 193 190 192 195 195 193 193 193 190
192 163 167 174 181 184 195 222 221 204 212 206 206 218 219 221 226 226 226 220 217 213 195 187 156 130 139 133 124 120 104 92 86 73 77 84 85 99 99 114 160 177 188 194 195 198 200 203 210 212 211 216 219 219 218 216 215 215 215 217 220 220 216 215 215 213 210 209 210 211 212 212 209 206 204 203 200 195 192 193 197 199 200 203 204 201
186 136 154 179 178 179 199 211 196 202 230 203 199 215 218 219 239 239 229 220 220 223 191 154 117 121 134 133 133 124 106 97 86 73 73 75 79 92 110 115 124 157 181 191 194 197 201 204 207 210 212 215 217 217 217 216 216 217 217 217 220 225 222 217 216 215 214 212 211 212 213 214 213 210 208 207 205 201 197 195 197 201 205 209 212 211
177 142 160 183 183 187 201 199 191 208 231 205 201 213 216 220 251 263 248 218 215 221 178 150 138 147 152 143 141 131 110 102 85 73 72 72 74 73 99 134 136 153 178 191 196 197 201 206 205 205 211 214 214 217 217 217 219 219 219 218 220 224 224 221 218 216 216 214 213 213 214 216 215 213 212 210 209 207 204 199 198 202 208 211 214 216
175 143 155 177 186 182 191 194 198 204 210 240 242 211 210 219 224 238 254 223 205 219 183 152 150 159 156 146 147 136 114 107 81 65 64 56 59 61 67 113 150 170 176 183 195 199 201 205 206 205 207 208 212 217 216 216 220 221 220 218 219 220 222 223 222 219 217 216 214 214 215 217 217 216 216 214 212 211 209 206 203 204 207 211 216 219
202 190 158 171 176 167 180 194 202 205 210 239 275 217 215 228 215 212 229 227 205 218 202 158 146 139 131 131 137 132 121 119 89 53 54 52 53 64 81 97 129 182 183 182 189 195 201 205 204 205 206 203 207 214 215 216 219 220 220 218 216 216 217 220 221 220 218 215 215 214 214 216 217 218 219 219 217 215 214 212 210 209 209 212 217 221
220 232 160 154 175 179 177 190 200 201 204 217 227 215 208 219 219 216 227 234 224 219 211 182 151 122 118 128 131 131 125 115 98 65 54 63 70 78 106 117 114 156 189 194 196 196 202 206 203 203 204 201 202 209 211 212 215 217 219 219 216 214 214 217 219 219 218 217 216 214 213 214 216 218 220 222 222 220 219 217 215 215 214 214 217 221
229 234 174 154 183 191 168 188 202 160 151 201 221 215 208 209 214 217 223 227 231 236 235 174 140 124 126 143 138 130 127 113 105 90 64 60 81 107 126 130 129 131 167 204 205 201 199 203 203 203 206 201 201 208 211 209 211 213 215 218 216 212 212 215 217 218 218 218 218 216 214 214 215 218 220 222 224 224 223 222 220 221 221 220 221 223
215 232 204 152 155 156 150 192 209 186 172 202 251 234 223 211 212 218 220 218 231 242 230 106 112 121 133 149 142 135 137 121 105 101 82 60 75 112 125 121 143 151 97 247 216 204 198 198 200 204 209 208 204 205 209 213 214 211 210 213 215 213 210 211 215 219 219 219 220 218 218 217 215 216 219 222 225 226 226 225 224 224 226 226 226 227
195 217 222 131 103 107 143 203 219 208 205 221 242 251 246 223 225 235 245 270 254 240 221 158 130 130 149 153 140 140 135 114 102 98 88 70 76 97 107 117 158 157 47 338 255 209 200 198 201 204 206 210 212 210 209 212 214 212 210 211 213 212 209 207 211 215 217 219 222 220 219 221 220 218 219 221 224 226 228 229 228 226 226 227 230 232
193 217 217 192 178 189 190 197 206 208 212 218 224 237 238 241 259 265 267 286 267 247 251 239 140 134 152 146 129 136 130 119 113 99 83 71 76 90 97 98 131 122 77 359 324 225 204 197 200 207 205 204 210 214 211 210 208 206 209 214 215 210 204 204 209 215 216 216 220 222 219 220 222 223 222 222 223 225 227 229 232 231 228 227 230 234
178 224 213 219 217 200 182 172 186 196 201 206 213 228 236 240 254 258 257 258 248 255 299 346 122 130 143 139 130 135 131 127 121 102 88 74 74 91 110 100 111 110 87 54 7 271 216 201 198 205 212 209 205 204 205 204 200 198 206 218 224 216 202 198 201 210 219 218 217 222 222 219 222 224 225 226 226 226 227 228 232 235 233 230 230 233
35 217 209 322 359 36 49 62 97 169 183 189 198 201 218 238 239 240 245 254 256 256 265 118 129 133 140 143 137 131 128 127 119 104 95 76 70 78 85 82 91 93 81 80 38 338 236 214 208 207 213 216 210 203 201 200 197 200 208 216 223 221 211 205 201 203 214 219 217 221 224 223 223 224 226 228 229 229 230 229 231 234 236 235 233 232
271 228 214 268 338 36 28 49 84 120 157 162 176 184 204 243 229 229 236 255 280 264 197 136 136 139 142 150 146 137 135 127 116 106 94 83 75 75 77 75 69 53 59 75 233 300 331 230 221 217 217 219 216 209 208 207 203 205 210 212 215 218 216 215 212 208 211 215 216 219 223 225 227 227 227 228 228 229 231 232 232 234 235 236 236 234
234 236 208 227 254 294 335 250 120 116 161 160 182 201 217 241 226 227 243 277 294 261 173 144 144 140 140 151 152 145 143 131 119 110 96 89 76 69 81 90 83 61 52 73 221 278 333 327 248 230 226 226 224 217 214 216 214 212 211 210 212 216 217 216 212 209 211 213 214 215 219 222 226 228 229 229 228 229 230 231 233 236 236 236 237 236
226 238 201 209 242 254 258 251 231 229 234 224 227 220 212 226 220 216 244 271 220 163 146 151 151 140 142 161 160 147 147 142 131 122 110 107 95 74 76 109 118 99 70 83 146 274 318 333 337 294 243 234 233 229 221 219 220 218 216 216 215 214 218 221 216 208 208 211 212 213 215 217 221 224 227 229 229 229 230 231 232 235 237 237 237 236
218 237 233 217 225 228 237 247 233 230 241 231 224 223 216 216 216 214 221 216 193 171 159 159 151 141 147 166 166 152 150 151 145 135 120 121 122 96 68 115 139 133 119 122 137 233 292 309 317 326 320 268 242 238 233 227 224 222 221 223 224 220 219 222 221 214 210 209 210 213 216 217 218 221 224 226 227 228 228 230 231 232 235 237 237 235
206 234 225 212 226 218 198 214 222 219 233 234 228 223 212 209 216 219 215 209 204 191 176 172 165 155 156 167 167 155 153 155 152 146 130 115 122 95 71 128 151 151 147 145 144 166 236 298 296 297 310 313 290 255 244 238 232 230 227 227 230 232 229 226 224 221 216 212 209 210 215 218 220 223 225 226 226 226 226 227 229 231 232 234 236 236
201 217 198 208 228 212 174 186 205 205 225 235 229 219 209 208 209 202 198 198 193 189 185 185 180 167 160 164 162 158 181 200 183 167 166 158 116 80 91 155 158 151 150 155 155 162 178 198 259 282 290 297 303 299 270 250 239 238 238 236 236 239 238 234 229 224 222 221 216 210 212 216 219 223 226 229 229 228 227 227 229 231 232 233 235 236
193 201 205 215 224 203 164 179 207 219 223 206 186 185 184 190 191 185 196 198 185 192 195 185 179 173 163 162 173 185 203 218 221 209 205 205 182 85 324 195 162 149 152 164 172 175 184 192 205 245 268 281 289 294 294 283 261 249 247 245 243 243 242 241 237 229 225 226 224 218 215 216 219 222 225 228 230 229 229 230 231 233 234 234 235 236
184 202 207 212 225 214 165 184 209 215 190 153 151 165 170 178 184 181 193 189 175 187 192 177 176 175 164 169 186 195 202 213 231 233 223 221 218 207 337 269 211 191 183 184 191 191 194 208 216 231 249 263 274 283 292 295 291 278 263 254 250 247 245 246 246 237 228 226 226 224 221 221 222 223 225 227 230 231 231 231 233 235 236 237 238 239
173 215 212 202 219 221 183 196 210 179 152 156 162 184 198 204 199 192 202 206 197 193 186 183 189 184 174 184 192 201 218 224 238 256 255 240 232 229 268 272 260 245 228 214 211 207 203 218 228 237 251 260 267 275 282 287 294 292 279 269 261 254 249 248 248 245 238 233 229 225 224 224 225 227 227 229 231 233 233 232 233 235 236 237 239 241
178 203 221 213 216 224 224 213 195 175 202 205 199 213 217 204 195 200 216 226 216 203 190 193 200 194 190 199 196 203 217 209 223 250 263 263 252 243 244 257 262 262 257 248 240 232 224 224 229 236 247 256 264 272 274 275 281 285 284 281 275 267 259 251 248 246 244 242 237 230 226 225 226 226 228 230 232 233 234 233 233 233 234 235 236 238
191 188 204 224 215 224 245 235 203 203 225 203 186 193 193 186 195 204 210 214 207 201 190 187 195 191 182 190 199 204 208 200 210 222 220 238 253 248 242 252 261 266 265 263 260 255 247 241 237 236 239 242 251 264 271 275 277 277 279 282 281 279 272 262 254 247 244 245 244 239 235 232 229 227 227 229 231 232 232 230 229 229 230 232 233 235
210 202 209 230 229 223 238 244 232 222 189 155 155 167 185 197 201 198 209 209 199 199 197 184 187 190 181 192 207 203 194 196 205 207 211 230 250 255 254 257 261 263 265 267 265 262 259 257 252 247 245 243 242 248 256 266 274 276 277 277 278 282 280 275 268 258 250 247 246 244 243 241 238 235 232 230 231 233 233 231 230 229 228 228 229 231
221 222 220 231 239 231 230 242 249 237 182 174 176 189 214 218 178 177 217 204 183 191 201 181 179 194 198 210 219 197 183 202 209 214 223 234 248 256 259 261 261 262 265 268 267 265 265 262 259 256 253 250 247 248 248 250 258 267 274 276 277 279 281 283 280 273 265 256 249 246 246 245 245 243 239 236 236 238 238 236 236 238 236 233 233 233
216 224 223 227 235 233 227 238 249 237 188 198 207 225 244 238 195 202 220 189 175 190 198 181 187 208 219 227 220 194 200 214 214 217 228 237 245 254 261 265 265 265 266 266 266 267 267 265 262 261 259 256 253 251 250 247 248 254 262 269 272 275 277 279 280 279 277 270 260 253 249 248 247 247 245 243 242 243 242 239 238 241 243 244 245 244
215 220 224 228 236 237 231 237 245 229 190 199 217 241 246 233 204 214 215 197 193 202 197 186 197 219 230 230 220 213 223 227 221 223 231 237 243 252 260 263 263 264 265 267 268 268 266 265 265 264 263 262 258 254 252 251 249 249 252 256 262 267 271 274 275 276 277 277 272 264 257 254 252 251 249 248 247 247 247 243 240 241 243 245 247 249
223 219 225 226 229 236 236 236 242 235 210 212 228 250 248 233 225 229 225 216 219 221 215 215 230 241 245 249 247 244 246 246 241 239 241 243 246 252 257 261 263 265 265 265 268 268 266 266 265 264 263 263 261 259 256 253 251 250 249 249 251 255 260 265 270 271 272 273 273 271 266 262 259 257 256 254 252 251 250 247 243 240 241 243 246 248
231 229 237 234 225 232 239 238 233 231 230 231 230 229 223 221 227 231 231 233 238 238 239 244 250 254 256 258 260 258 257 257 256 255 257 258 258 257 259 263 267 270 269 267 266 267 268 267 265 264 263 262 262 261 258 255 252 251 250 250 249 250 252 255 260 265 268 269 269 271 272 270 266 264 262 261 258 256 253 249 246 242 241 242 244 246
227 225 232 231 224 229 244 256 237 215 217 230 230 226 229 231 234 234 230 229 235 241 243 243 249 259 263 262 262 264 264 263 262 263 265 267 267 266 265 266 269 271 273 272 270 268 268 269 268 266 265 263 262 261 260 258 255 252 250 250 250 249 248 249 251 256 261 264 265 267 270 272 273 271 268 266 265 263 259 253 248 245 244 243 244 244
239 234 231 230 236 244 253 260 247 222 214 222 227 239 250 254 253 246 238 236 239 243 246 249 256 265 268 266 264 265 266 267 268 268 268 269 270 270 270 270 272 273 274 274 274 272 271 270 269 269 267 265 264 262 261 260 258 255 252 250 250 250 248 247 248 249 253 257 260 263 266 269 273 275 274 271 269 268 267 261 253 247 245 244 244 243
255 254 247 240 242 247 249 251 245 237 240 243 242 250 259 263 264 258 251 248 249 252 256 259 262 266 269 269 267 266 268 271 272 271 271 272 272 272 272 273 273 274 275 276 277 277 276 273 271 270 269 267 265 264 262 261 260 259 256 252 250 250 249 248 247 246 248 251 254 258 261 264 268 271 273 274 272 271 271 269 261 252 246 244 245 245
248 252 249 242 240 240 240 242 239 233 235 240 241 244 256 267 269 264 257 253 253 255 258 258 258 263 268 270 270 269 269 270 272 274 276 277 277 276 276 275 274 273 274 274 274 276 277 277 276 274 272 270 267 264 262 261 260 258 257 254 252 250 250 249 247 245 245 247 249 252 255 259 263 266 268 270 272 272 272 270 267 260 252 247 245 245
237 237 239 242 245 244 243 247 252 252 252 255 256 253 251 257 262 259 253 251 253 254 255 256 259 263 266 268 270 271 271 271 272 275 277 278 280 281 280 278 277 275 272 270 270 272 274 275 276 276 274 273 270 267 263 260 258 257 255 254 252 252 251 251 248 245 244 244 246 248 250 252 256 260 263 266 268 269 270 270 269 266 261 256 250 246
246 246 246 248 252 252 249 247 248 250 251 255 259 257 248 246 249 248 243 244 248 250 254 259 261 261 263 266 268 270 272 272 272 273 275 276 279 280 280 280 281 280 276 272 271 271 272 274 275 275 274 273 272 271 267 263 259 257 255 253 251 251 251 251 250 246 243 242 243 245 246 248 249 252 257 260 263 265 267 268 268 268 267 265 259 252
249 248 246 245 246 246 243 236 234 239 241 239 241 247 247 243 239 236 236 240 242 245 253 259 260 260 262 264 265 268 270 270 270 271 271 273 276 280 284 286 287 288 286 284 281 278 277 277 276 276 274 273 271 271 270 268 264 259 256 254 251 249 249 250 250 247 242 240 240 242 244 245 246 247 250 254 258 261 263 264 265 265 267 269 268 263
Height
3146 3147 3147 3147 3148 3149 3150 3151 3152 3153 3153 3153 3155 3156 3155 3156 3157 3157 3158 3160 3161 3164 3164 3164 3164 3162 3162 3162 3162 3165 3168 3168 3170 3172 3174 3176 3176 3178 3181 3184 3186 3188 3190 3192 3193 3195 3197 3199 3201 3203 3204 3206 3208 3209 3211 3212 3213 3215 3216 3217 3218 3219 3220 3222 3223 3224 3226 3227 3228 3229 3231 3232 3232 3233 3233 3234 3235 3236 3236 3236 3237 3237 3237 3238 3239 3239
3146 3146 3146 3146 3148 3149 3150 3151 3152 3153 3153 3153 3154 3155 3154 3155 3156 3156 3158 3160 3161 3163 3164 3164 3164 3163 3162 3162 3162 3165 3167 3168 3171 3172 3174 3175 3176 3178 3180 3183 3185 3187 3190 3191 3192 3195 3197 3199 3200 3202 3204 3205 3207 3209 3211 3212 3213 3215 3216 3217 3218 3219 3221 3222 3223 3225 3226 3227 3229 3230 3231 3232 3233 3233 3234 3234 3234 3235 3236 3237 3237 3238 3238 3239 3239 3240
3145 3145 3145 3146 3148 3149 3150 3151 3152 3152 3153 3153 3153 3154 3153 3154 3156 3157 3159 3161 3161 3162 3162 3163 3164 3163 3162 3163 3163 3164 3166 3168 3171 3172 3173 3175 3176 3178 3179 3181 3184 3186 3189 3191 3192 3194 3196 3198 3200 3201 3203 3205 3207 3209 3210 3212 3213 3214 3215 3216 3218 3219 3221 3222 3223 3225 3226 3228 3229 3230 3231 3232 3233 3234 3235 3235 3235 3235 3236 3237 3238 3239 3239 3240 3240 3241
3143 3143 3144 3146 3147 3148 3149 3150 3151 3152 3153 3153 3153 3154 3154 3154 3156 3157 3159 3161 3162 3162 3162 3162 3163 3164 3163 3163 3164 3165 3166 3167 3169 3170 3172 3173 3175 3177 3178 3181 3183 3185 3188 3189 3191 3194 3195 3197 3199 3200 3203 3204 3206 3208 3210 3211 3212 3214 3215 3216 3218 3219 3221 3222 3223 3225 3226 3227 3229 3230 3231 3232 3233 3234 3235 3236 3236 3237 3237 3238 3239 3240 3240 3241 3241 3242
3142 3142 3144 3146 3147 3148 3149 3149 3151 3152 3153 3153 3153 3154 3154 3155 3155 3156 3158 3160 3161 3162 3162 3162 3163 3165 3164 3164 3165 3166 3166 3168 3167 3167 3169 3172 3173 3175 3178 3180 3182 3185 3187 3188 3191 3193 3195 3196 3198 3200 3202 3204 3206 3207 3209 3211 3212 3213 3215 3216 3218 3219 3220 3222 3223 3225 3226 3227 3229 3230 3231 3233 3234 3235 3236 3237 3237 3238 3238 3239 3240 3240 3241 3241 3242 3242
3141 3142 3144 3145 3146 3147 3148 3149 3150 3151 3152 3152 3153 3154 3155 3155 3155 3155 3158 3159 3159 3159 3161 3161 3162 3165 3165 3165 3167 3166 3167 3168 3168 3167 3169 3171 3172 3174 3177 3179 3181 3184 3186 3188 3190 3192 3194 3195 3197 3199 3201 3203 3205 3207 3209 3210 3212 3213 3215 3216 3217 3219 3220 3222 3223 3224 3226 3227 3229 3230 3231 3233 3234 3235 3236 3237 3238 3239 3239 3240 3240 3241 3242 3242 3243 3243
3140 3141 3142 3144 3146 3147 3148 3148 3149 3150 3151 3151 3151 3153 3154 3155 3155 3155 3157 3157 3155 3156 3159 3159 3160 3164 3166 3167 3167 3167 3168 3169 3170 3170 3170 3171 3172 3174 3177 3178 3180 3183 3185 3187 3189 3191 3193 3195 3197 3199 3201 3203 3205 3206 3208 3210 3211 3213 3214 3216 3217 3219 3220 3221 3223 3224 3226 3228 3229 3230 3232 3233 3234 3235 3236 3238 3238 3239 3240 3240 3241 3242 3242 3243 3243 3244
3139 3140 3142 3144 3145 3146 3147 3147 3148 3149 3150 3150 3151 3152 3154 3155 3155 3155 3156 3156 3154 3155 3157 3159 3159 3161 3165 3168 3168 3168 3168 3169 3171 3171 3172 3172 3174 3175 3177 3179 3180 3182 3184 3186 3188 3190 3192 3194 3196 3198 3200 3202 3204 3205 3207 3209 3210 3212 3214 3215 3217 3218 3220 3221 3223 3224 3226 3227 3229 3230 3232 3233 3234 3235 3237 3238 3239 3240 3240 3241 3241 3242 3243 3243 3244 3244
3138 3139 3141 3143 3145 3145 3146 3146 3147 3149 3150 3150 3150 3151 3153 3155 3156 3156 3156 3155 3154 3153 3153 3156 3157 3160 3166 3169 3169 3168 3169 3170 3171 3171 3172 3173 3174 3175 3177 3179 3180 3181 3183 3185 3187 3189 3191 3193 3195 3198 3200 3201 3203 3205 3207 3208 3210 3211 3213 3215 3216 3218 3220 3221 3222 3224 3225 3227 3229 3230 3231 3233 3234 3235 3236 3238 3239 3240 3241 3241 3242 3243 3243 3244 3245 3245
3138 3139 3141 3143 3144 3144 3145 3146 3147 3148 3149 3149 3149 3151 3154 3155 3155 3156 3155 3154 3154 3152 3151 3152 3154 3159 3167 3170 3169 3168 3169 3171 3171 3172 3173 3173 3174 3175 3176 3179 3180 3180 3182 3184 3186 3188 3190 3192 3194 3197 3199 3201 3202 3204 3206 3208 3209 3211 3212 3214 3216 3218 3219 3221 3222 3224 3225 3227 3228 3230 3231 3232 3233 3235 3236 3237 3238 3240 3241 3242 3242 3243 3243 3244 3245 3246
3138 3139 3140 3142 3142 3142 3144 3145 3146 3147 3148 3149 3151 3153 3154 3155 3156 3155 3154 3154 3152 3150 3150 3151 3153 3157 3165 3171 3169 3169 3170 3171 3172 3172 3173 3173 3174 3175 3176 3178 3179 3179 3181 3183 3186 3188 3190 3192 3194 3196 3198 3200 3202 3203 3205 3207 3208 3210 3211 3213 3215 3217 3218 3220 3222 3223 3225 3226 3228 3229 3231 3232 3233 3234 3236 3237 3238 3239 3241 3242 3243 3243 3244 3245 3245 3246
3137 3138 3139 3140 3140 3141 3143 3144 3144 3146 3148 3149 3151 3152 3153 3153 3154 3153 3153 3153 3149 3147 3149 3151 3153 3155 3163 3170 3170 3169 3171 3171 3172 3173 3173 3174 3175 3174 3175 3176 3177 3179 3181 3182 3184 3187 3189 3191 3193 3195 3197 3198 3200 3202 3204 3206 3207 3209 3210 3212 3214 3216 3217 3219 3221 3222 3224 3225 3227 3228 3230 3231 3233 3234 3235 3236 3238 3239 3240 3241 3243 3243 3244 3245 3246 3246
3137 3138 3138 3139 3139 3141 3143 3144 3145 3147 3148 3150 3150 3150 3149 3148 3150 3150 3149 3148 3146 3146 3149 3150 3152 3157 3163 3168 3169 3169 3170 3171 3172 3173 3174 3175 3174 3173 3174 3174 3176 3178 3180 3181 3183 3185 3188 3190 3192 3194 3195 3197 3199 3201 3203 3205 3207 3208 3210 3211 3213 3215 3217 3218 3220 3221 3223 3225 3226 3228 3229 3230 3232 3233 3235 3236 3237 3238 3240 3241 3242 3243 3244 3245 3246 3247
3136 3137 3138 3139 3139 3140 3143 3144 3144 3146 3147 3148 3148 3148 3146 3143 3146 3148 3145 3145 3144 3145 3149 3149 3150 3158 3165 3168 3169 3169 3170 3170 3171 3172 3173 3174 3173 3172 3173 3173 3175 3177 3179 3181 3182 3184 3187 3189 3191 3193 3194 3196 3198 3200 3202 3204 3205 3207 3209 3210 3212 3214 3216 3217 3219 3220 3222 3224 3225 3227 3228 3230 3231 3232 3234 3235 3237 3238 3239 3241 3242 3243 3244 3245 3246 3247
3132 3133 3135 3138 3138 3139 3142 3142 3142 3143 3145 3146 3146 3147 3144 3141 3143 3144 3141 3141 3141 3141 3146 3148 3149 3155 3163 3167 3168 3169 3170 3170 3171 3172 3172 3173 3173 3172 3172 3173 3175 3177 3179 3180 3182 3184 3186 3188 3190 3192 3194 3195 3197 3199 3201 3203 3204 3206 3208 3209 3211 3213 3214 3216 3218 3219 3221 3223 3224 3225 3227 3228 3230 3232 3233 3235 3236 3237 3238 3240 3241 3243 3244 3245 3246 3247
3129 3131 3133 3135 3136 3138 3141 3142 3141 3142 3143 3144 3145 3145 3143 3141 3141 3140 3137 3138 3138 3139 3143 3147 3151 3156 3162 3168 3169 3168 3170 3171 3171 3172 3172 3172 3172 3172 3173 3173 3174 3176 3178 3179 3181 3183 3185 3186 3189 3191 3192 3194 3195 3197 3199 3201 3203 3205 3206 3209 3210 3212 3213 3215 3216 3218 3220 3221 3223 3224 3226 3227 3229 3230 3232 3234 3235 3237 3238 3239 3240 3242 3243 3244 3245 3246
3126 3130 3134 3135 3137 3138 3140 3140 3142 3142 3141 3142 3144 3143 3142 3142 3142 3139 3136 3137 3138 3137 3138 3145 3153 3158 3162 3167 3169 3168 3169 3171 3171 3171 3171 3172 3172 3171 3171 3172 3174 3176 3176 3177 3178 3181 3183 3185 3186 3188 3191 3193 3194 3196 3198 3200 3201 3203 3205 3208 3210 3211 3212 3214 3215 3217 3218 3220 3221 3223 3224 3226 3227 3229 3231 3233 3235 3236 3237 3238 3240 3241 3242 3244 3245 3246
3124 3130 3134 3135 3137 3138 3138 3140 3142 3142 3140 3141 3142 3141 3142 3143 3143 3141 3137 3134 3134 3132 3134 3143 3152 3157 3161 3165 3168 3168 3169 3170 3171 3171 3171 3170 3170 3169 3168 3168 3170 3173 3175 3176 3177 3178 3180 3183 3184 3186 3188 3191 3193 3195 3196 3198 3200 3201 3204 3206 3208 3210 3211 3213 3214 3215 3217 3218 3220 3222 3223 3224 3226 3228 3230 3232 3233 3235 3236 3237 3239 3240 3241 3243 3244 3245
3126 3129 3133 3136 3136 3137 3138 3140 3141 3142 3140 3140 3140 3140 3141 3142 3143 3143 3139 3133 3131 3129 3132 3143 3151 3155 3160 3163 3165 3167 3168 3169 3170 3169 3169 3169 3167 3167 3166 3166 3167 3169 3171 3174 3177 3178 3179 3181 3183 3184 3186 3188 3191 3193 3195 3196 3198 3200 3202 3204 3206 3208 3210 3212 3213 3214 3216 3217 3219 3220 3222 3223 3225 3227 3228 3230 3232 3233 3235 3237 3238 3239 3240 3242 3243 3244
3128 3128 3131 3135 3136 3136 3139 3140 3141 3142 3141 3141 3142 3142 3142 3142 3141 3142 3139 3135 3133 3130 3131 3141 3151 3156 3161 3163 3163 3165 3167 3169 3169 3168 3167 3167 3166 3165 3165 3165 3166 3167 3169 3171 3174 3176 3177 3178 3180 3182 3185 3187 3189 3191 3193 3195 3197 3198 3200 3202 3204 3206 3208 3210 3211 3212 3214 3216 3217 3219 3220 3222 3223 3225 3227 3228 3230 3232 3234 3236 3237 3238 3239 3241 3242 3243
3130 3128 3129 3133 3136 3136 3136 3137 3138 3139 3140 3142 3143 3142 3143 3143 3141 3141 3139 3136 3133 3129 3127 3136 3150 3158 3161 3162 3162 3164 3166 3168 3168 3168 3167 3165 3164 3164 3164 3165 3166 3167 3168 3169 3170 3173 3175 3176 3177 3180 3182 3185 3187 3189 3191 3192 3195 3197 3199 3201 3202 3204 3207 3208 3209 3211 3213 3214 3215 3217 3219 3220 3222 3224 3225 3227 3229 3231 3233 3234 3236 3237 3238 3239 3241 3242
3131 3129 3128 3131 3134 3134 3134 3135 3136 3136 3137 3140 3141 3141 3141 3142 3141 3141 3140 3137 3135 3131 3127 3133 3147 3158 3161 3161 3162 3164 3166 3167 3168 3169 3168 3165 3163 3163 3164 3164 3165 3166 3167 3168 3168 3171 3173 3174 3175 3178 3180 3182 3185 3187 3189 3191 3192 3194 3197 3200 3201 3203 3205 3206 3208 3209 3211 3212 3214 3216 3217 3219 3221 3222 3224 3226 3227 3229 3231 3233 3234 3236 3237 3238 3240 3241
3131 3129 3128 3129 3131 3132 3133 3135 3136 3137 3137 3139 3140 3140 3140 3140 3141 3141 3139 3138 3137 3134 3132 3137 3149 3159 3161 3161 3162 3163 3165 3166 3166 3168 3168 3165 3163 3163 3164 3164 3165 3165 3166 3167 3167 3168 3170 3171 3173 3176 3179 3180 3182 3184 3187 3190 3191 3193 3195 3197 3200 3201 3202 3204 3206 3207 3209 3211 3212 3214 3216 3217 3219 3221 3222 3224 3226 3228 3229 3231 3233 3234 3236 3238 3239 3239
3132 3130 3129 3130 3132 3134 3135 3137 3138 3139 3140 3142 3141 3142 3142 3141 3142 3141 3140 3141 3139 3135 3134 3138 3149 3159 3161 3161 3162 3163 3165 3165 3166 3167 3167 3165 3163 3163 3163 3164 3164 3165 3165 3166 3166 3167 3168 3170 3172 3173 3176 3178 3180 3182 3185 3188 3190 3192 3194 3194 3196 3198 3199 3200 3202 3204 3206 3208 3210 3212 3214 3216 3217 3219 3220 3222 3224 3226 3228 3229 3231 3232 3234 3236 3237 3238
3132 3132 3131 3132 3133 3135 3136 3138 3140 3141 3142 3143 3143 3143 3144 3143 3143 3143 3143 3143 3142 3138 3136 3138 3147 3156 3159 3160 3163 3164 3165 3166 3166 3167 3166 3164 3163 3162 3163 3164 3164 3165 3165 3166 3166 3167 3168 3170 3172 3172 3173 3176 3179 3183 3186 3187 3190 3192 3193 3193 3193 3193 3194 3195 3198 3201 3202 3205 3208 3210 3212 3214 3216 3217 3219 3221 3222 3224 3226 3228 3229 3230 3232 3234 3235 3236
3133 3134 3133 3132 3131 3131 3132 3134 3136 3139 3140 3142 3143 3143 3144 3144 3145 3144 3143 3143 3142 3141 3141 3142 3148 3155 3158 3160 3162 3164 3165 3165 3166 3166 3166 3165 3163 3162 3163 3164 3164 3165 3165 3166 3166 3167 3167 3169 3171 3172 3173 3174 3178 3182 3186 3188 3190 3190 3190 3192 3193 3193 3191 3191 3193 3196 3199 3202 3205 3207 3209 3212 3214 3216 3217 3219 3221 3222 3224 3225 3227 3228 3230 3231 3233 3234
3134 3135 3134 3134 3134 3133 3133 3134 3135 3137 3138 3140 3142 3143 3144 3144 3145 3145 3145 3144 3142 3142 3144 3147 3149 3153 3157 3160 3161 3162 3164 3164 3165 3165 3165 3165 3164 3163 3163 3164 3164 3165 3165 3165 3166 3167 3168 3169 3170 3172 3173 3174 3176 3179 3182 3184 3186 3187 3188 3189 3191 3193 3193 3192 3192 3194 3196 3199 3202 3204 3207 3209 3211 3214 3216 3217 3219 3221 3222 3223 3225 3226 3227 3229 3230 3232
3135 3135 3135 3135 3136 3136 3136 3136 3136 3137 3138 3140 3141 3143 3144 3144 3145 3146 3146 3145 3144 3142 3145 3149 3150 3152 3156 3159 3160 3161 3162 3163 3164 3165 3165 3165 3165 3164 3163 3164 3164 3165 3165 3165 3166 3167 3168 3169 3170 3171 3172 3173 3174 3177 3179 3180 3182 3184 3185 3186 3187 3189 3191 3191 3193 3194 3195 3198 3200 3202 3204 3207 3209 3211 3213 3215 3217 3218 3220 3221 3222 3224 3225 3226 3228 3229
3135 3135 3135 3136 3136 3136 3136 3136 3137 3138 3139 3140 3142 3142 3143 3144 3145 3146 3145 3145 3146 3144 3146 3150 3152 3153 3156 3158 3159 3160 3161 3162 3163 3164 3165 3165 3165 3165 3164 3164 3164 3165 3165 3164 3165 3168 3169 3169 3170 3170 3171 3172 3173 3175 3177 3179 3180 3181 3182 3183 3184 3186 3187 3189 3190 3191 3193 3195 3197 3199 3201 3203 3206 3208 3210 3212 3214 3216 3218 3219 3220 3222 3223 3224 3225 3226
3134 3134 3134 3136 3136 3136 3136 3136 3137 3139 3140 3141 3142 3142 3143 3144 3145 3146 3146 3146 3147 3147 3148 3151 3153 3154 3156 3158 3158 3158 3158 3159 3161 3162 3164 3164 3165 3166 3165 3164 3164 3164 3165 3165 3166 3168 3169 3169 3169 3170 3170 3170 3171 3173 3175 3177 3178 3179 3180 3180 3181 3182 3184 3186 3187 3187 3188 3191 3193 3195 3197 3199 3202 3204 3206 3208 3210 3213 3215 3216 3218 3219 3220 3221 3222 3224
3133 3133 3134 3136 3136 3136 3136 3137 3137 3139 3139 3140 3141 3142 3143 3144 3145 3146 3146 3146 3147 3149 3150 3152 3153 3153 3155 3156 3157 3156 3157 3158 3159 3161 3161 3161 3163 3164 3165 3164 3164 3164 3165 3165 3166 3167 3168 3169 3169 3169 3169 3170 3170 3171 3173 3174 3176 3177 3178 3178 3179 3179 3181 3183 3185 3185 3185 3187 3190 3192 3193 3195 3197 3200 3202 3204 3206 3209 3211 3213 3214 3216 3217 3218 3219 3220
3133 3133 3133 3135 3135 3134 3135 3137 3138 3138 3139 3140 3140 3141 3142 3143 3144 3145 3146 3146 3147 3149 3150 3152 3153 3153 3153 3155 3156 3156 3157 3158 3158 3159 3160 3159 3160 3161 3162 3162 3163 3164 3165 3165 3166 3167 3167 3168 3168 3168 3168 3169 3170 3170 3171 3173 3174 3175 3176 3177 3177 3176 3178 3181 3185 3185 3185 3185 3186 3187 3189 3191 3194 3196 3198 3200 3202 3205 3207 3209 3210 3212 3213 3215 3216 3217
3133 3133 3134 3135 3134 3132 3134 3137 3137 3138 3139 3138 3137 3139 3141 3143 3144 3144 3145 3145 3146 3148 3150 3151 3152 3151 3152 3155 3158 3158 3158 3158 3158 3158 3158 3158 3159 3159 3160 3161 3162 3163 3164 3165 3165 3166 3167 3167 3168 3168 3168 3168 3169 3170 3170 3171 3172 3173 3174 3175 3175 3174 3175 3178 3181 3184 3185 3184 3183 3183 3184 3187 3190 3192 3195 3197 3199 3201 3203 3205 3206 3208 3209 3211 3213 3214
3132 3132 3134 3134 3132 3132 3134 3136 3137 3137 3135 3134 3135 3137 3139 3141 3142 3144 3145 3145 3145 3147 3147 3149 3150 3150 3153 3156 3158 3158 3158 3157 3157 3156 3156 3157 3158 3159 3160 3160 3161 3162 3163 3164 3165 3166 3166 3167 3167 3167 3167 3168 3168 3168 3169 3169 3170 3171 3171 3172 3173 3173 3173 3175 3176 3180 3183 3183 3182 3181 3181 3183 3187 3189 3192 3194 3196 3198 3199 3201 3203 3204 3206 3208 3209 3210
3132 3132 3133 3133 3132 3132 3133 3136 3136 3134 3132 3133 3134 3135 3137 3139 3141 3143 3144 3144 3144 3146 3146 3147 3149 3149 3152 3154 3155 3155 3156 3157 3157 3156 3156 3156 3157 3158 3159 3160 3160 3162 3163 3163 3164 3165 3165 3166 3166 3167 3167 3167 3167 3167 3168 3168 3168 3169 3169 3170 3170 3171 3171 3172 3173 3175 3178 3179 3179 3178 3178 3182 3185 3186 3188 3190 3192 3194 3195 3197 3199 3201 3203 3204 3205 3206
3132 3133 3133 3133 3133 3132 3133 3134 3133 3132 3132 3133 3134 3135 3136 3138 3140 3142 3143 3142 3143 3146 3147 3147 3148 3148 3150 3153 3154 3156 3157 3158 3158 3157 3156 3156 3156 3157 3158 3158 3159 3160 3161 3162 3163 3164 3164 3165 3165 3166 3166 3167 3167 3167 3167 3167 3167 3167 3168 3168 3168 3169 3169 3170 3171 3172 3174 3175 3175 3175 3176 3180 3182 3183 3185 3186 3188 3190 3191 3192 3195 3197 3198 3200 3201 3203
3131 3132 3132 3133 3132 3132 3131 3130 3130 3132 3132 3133 3134 3135 3136 3138 3139 3140 3141 3141 3142 3144 3146 3147 3148 3149 3151 3153 3155 3157 3158 3158 3159 3158 3157 3156 3155 3156 3157 3157 3157 3158 3159 3160 3161 3162 3163 3164 3164 3165 3166 3166 3166 3166 3166 3167 3166 3166 3166 3167 3167 3167 3167 3168 3169 3170 3171 3172 3173 3173 3174 3176 3178 3180 3182 3183 3185 3185 3186 3188 3190 3192 3194 3195 3196 3198
3130 3131 3131 3132 3132 3132 3131 3128 3128 3130 3131 3131 3132 3134 3135 3136 3137 3138 3140 3140 3140 3141 3144 3146 3147 3148 3150 3151 3152 3153 3154 3156 3158 3158 3156 3153 3153 3154 3155 3156 3156 3157 3157 3158 3159 3160 3161 3162 3163 3164 3164 3165 3165 3165 3165 3166 3166 3166 3166 3165 3166 3166 3166 3166 3167 3168 3169 3170 3171 3172 3173 3174 3175 3176 3177 3179 3180 3180 3180 3181 3183 3186 3188 3190 3192 3194
3130 3130 3131 3132 3131 3131 3131 3129 3126 3127 3129 3130 3131 3133 3134 3135 3135 3137 3139 3138 3138 3139 3141 3144 3145 3146 3146 3148 3148 3149 3152 3155 3156 3155 3152 3151 3151 3152 3153 3154 3155 3155 3155 3156 3157 3157 3159 3160 3160 3161 3162 3163 3163 3164 3164 3164 3164 3164 3164 3164 3165 3165 3165 3166 3166 3166 3167 3168 3169 3171 3172 3172 3173 3174 3175 3175 3175 3173 3174 3177 3180 3181 3182 3183 3186 3188
3130 3131 3131 3132 3131 3130 3130 3129 3126 3126 3128 3129 3130 3131 3133 3134 3135 3137 3137 3135 3136 3138 3139 3141 3144 3143 3143 3145 3146 3148 3151 3153 3152 3150 3149 3150 3150 3150 3150 3152 3152 3153 3153 3154 3154 3155 3156 3157 3157 3159 3159 3160 3161 3162 3162 3162 3163 3163 3163 3163 3163 3164 3164 3165 3165 3165 3165 3166 3167 3168 3169 3170 3171 3171 3172 3172 3171 3169 3171 3176 3179 3181 3181 3182 3184 3186
3130 3130 3130 3130 3129 3129 3129 3129 3127 3126 3127 3128 3129 3130 3131 3133 3135 3136 3135 3133 3134 3136 3137 3138 3140 3140 3141 3142 3144 3146 3147 3147 3146 3146 3147 3148 3148 3148 3148 3149 3149 3150 3151 3151 3151 3152 3153 3153 3154 3155 3156 3157 3158 3159 3159 3160 3161 3161 3161 3161 3162 3163 3163 3163 3163 3163 3163 3164 3164 3165 3166 3167 3168 3168 3168 3169 3168 3167 3168 3173 3178 3181 3183 3184 3187 3189
3129 3129 3129 3129 3128 3128 3127 3127 3127 3126 3126 3127 3128 3128 3130 3133 3134 3133 3132 3132 3133 3134 3135 3136 3137 3137 3139 3140 3142 3143 3143 3143 3144 3145 3145 3146 3146 3147 3147 3146 3146 3147 3148 3148 3148 3148 3149 3150 3151 3152 3152 3153 3154 3155 3156 3157 3158 3159 3159 3160 3160 3160 3161 3161 3161 3161 3162 3162 3162 3162 3163 3163 3164 3165 3165 3165 3166 3165 3166 3170 3176 3179 3180 3181 3183 3185
3127 3127 3127 3127 3127 3126 3126 3126 3126 3125 3124 3124 3126 3127 3129 3132 3131 3130 3130 3131 3132 3132 3134 3135 3135 3136 3137 3138 3139 3140 3140 3141 3142 3143 3142 3143 3144 3144 3144 3143 3143 3144 3145 3145 3145 3145 3145 3146 3147 3148 3149 3149 3150 3151 3152 3154 3154 3155 3156 3157 3157 3158 3158 3158 3159 3159 3159 3160 3160 3160 3160 3160 3160 3161 3161 3162 3162 3163 3164 3168 3172 3173 3174 3176 3178 3179
3125 3126 3125 3125 3125 3125 3124 3124 3124 3124 3122 3123 3125 3127 3127 3128 3127 3128 3130 3131 3130 3131 3132 3133 3133 3133 3134 3135 3136 3136 3138 3138 3139 3139 3139 3140 3141 3141 3141 3141 3141 3141 3141 3142 3142 3142 3142 3143 3143 3144 3145 3146 3146 3147 3148 3149 3150 3152 3153 3153 3154 3155 3155 3155 3156 3156 3156 3157 3157 3158 3158 3157 3157 3157 3158 3158 3159 3160 3161 3164 3167 3168 3169 3171 3173 3173
3123 3123 3123 3122 3123 3123 3123 3122 3122 3123 3123 3123 3124 3125 3125 3125 3125 3127 3129 3129 3129 3129 3130 3131 3130 3130 3131 3133 3133 3133 3134 3135 3135 3136 3136 3136 3137 3138 3138 3138 3138 3138 3138 3138 3138 3138 3138 3139 3139 3140 3141 3142 3142 3143 3143 3144 3145 3147 3148 3149 3150 3150 3151 3152 3152 3153 3153 3154 3154 3155 3155 3155 3154 3154 3155 3155 3156 3157 3158 3161 3164 3165 3166 3167 3168 3168
3120 3120 3121 3121 3121 3122 3122 3121 3121 3122 3122 3122 3123 3123 3122 3123 3124 3125 3127 3127 3127 3127 3127 3128 3128 3127 3128 3130 3130 3130 3131 3131 3131 3132 3133 3133 3133 3134 3134 3135 3135 3135 3134 3134 3134 3134 3135 3135 3135 3136 3137 3138 3138 3139 3139 3140 3140 3142 3143 3145 3145 3146 3147 3147 3148 3149 3150 3150 3151 3151 3151 3151 3152 3152 3152 3152 3152 3153 3154 3156 3159 3161 3162 3163 3163 3164
3117 3117 3118 3120 3120 3121 3121 3121 3121 3121 3121 3121 3122 3122 3120 3121 3122 3123 3124 3125 3124 3124 3125 3126 3126 3126 3126 3126 3127 3127 3127 3127 3128 3128 3128 3129 3129 3130 3131 3131 3131 3131 3131 3131 3130 3130 3130 3131 3132 3132 3133 3134 3134 3134 3135 3136 3136 3137 3138 3140 3140 3141 3141 3142 3144 3145 3146 3146 3147 3147 3148 3148 3148 3149 3149 3149 3149 3150 3151 3152 3154 3156 3157 3158 3158 3159
3115 3115 3116 3117 3118 3119 3119 3119 3118 3118 3119 3119 3119 3120 3119 3119 3119 3120 3121 3122 3121 3122 3123 3123 3124 3124 3124 3124 3123 3124 3124 3124 3124 3124 3124 3125 3125 3126 3127 3127 3128 3128 3128 3128 3127 3127 3126 3126 3127 3128 3128 3129 3129 3130 3130 3131 3132 3132 3133 3134 3135 3136 3136 3137 3139 3140 3141 3142 3143 3143 3144 3144 3145 3145 3146 3146 3146 3147 3148 3148 3149 3151 3152 3153 3153 3154
3112 3113 3114 3115 3115 3115 3116 3116 3116 3116 3115 3115 3116 3117 3117 3117 3116 3116 3117 3117 3118 3119 3120 3120 3121 3121 3121 3121 3121 3121 3121 3121 3121 3121 3121 3121 3121 3122 3122 3123 3123 3124 3125 3124 3124 3123 3123 3123 3123 3124 3124 3124 3125 3125 3125 3126 3127 3128 3128 3129 3130 3130 3131 3132 3133 3135 3136 3137 3138 3139 3139 3140 3141 3141 3142 3142 3143 3144 3144 3145 3146 3146 3147 3148 3148 3149
3111 3111 3112 3112 3113 3113 3114 3115 3114 3113 3113 3113 3112 3113 3114 3114 3114 3115 3115 3114 3114 3115 3116 3117 3118 3118 3119 3119 3118 3118 3119 3119 3118 3118 3118 3118 3118 3118 3118 3118 3118 3119 3120 3120 3120 3120 3120 3119 3119 3119 3120 3120 3120 3120 3120 3121 3122 3123 3123 3124 3125 3125 3126 3126 3128 3129 3131 3132 3133 3133 3134 3135 3136 3137 3138 3138 3139 3140 3141 3142 3142 3142 3142 3143 3143 3144
3109 3109 3109 3109 3110 3110 3110 3110 3110 3109 3109 3110 3109 3109 3109 3110 3111 3113 3113 3112 3112 3112 3113 3114 3115 3115 3115 3116 3116 3116 3116 3116 3115 3115 3115 3115 3114 3114 3114 3114 3114 3114 3114 3115 3115 3116 3116 3115 3115 3115 3115 3115 3116 3116 3115 3116 3117 3118 3119 3119 3120 3120 3121 3121 3122 3124 3125 3126 3127 3128 3129 3130 3131 3132 3133 3134 3135 3135 3136 3138 3138 3139 3139 3138 3139 3139